Flag for Canada Weather past 2 weeks in Pickering, Ontario, Canada

Now
72 °F

Partly sunny.


Feels Like: 72 °F
Forecast: 64 / 74 °F
Wind: 5 mph from East

Location: Toronto Buttonville

Current Time: Aug 22, 2014 at 10:14:31 PM

Latest Report: Aug 22, 2014 at 9:00 PM


Visibility: 15 mi

Pressure: 30.03 "Hg

Humidity: 78%

Dew point: 64 °F

Location of PickeringLocation

Historic Weather in Pickering — Graph

°F

Pickering temperature yesterday

Maximum temperature yesterday: 79 °F (at 5:00 PM)
Minimum temperature yesterday: 64 °F (at 3:00 AM)
Average temperature yesterday: 71 °F

Past Weeks' High & Low Weather Summary

 TemperatureHumidityPressure
High79 °F (Aug 9, 3:00 PM)100% (Aug 17, 6:00 AM)30.19 "Hg (Aug 17, 6:00 AM)
Low50 °F (Aug 19, 4:00 AM)38% (Aug 15, 5:00 PM)29.67 "Hg (Aug 12, 5:00 PM)
Average66 °F75%29.95 "Hg
* Reported Aug 7 9:00 PM — Aug 22 9:00 PM, Pickering, Weather by CustomWeather, © 2014

Note: Actual official high and low records may vary slightly from our data, if they occured in-between our weather recording intervals... More about our weather records

Advertising

Pickering weather history for previous 24 hours

 ConditionsComfort  
Time TempWeatherWind HumidityBarometerVisibility
9:00 PM
Aug 22
72 °FPartly sunny.5 mph78%30.03 "Hg15 mi
8:00 PM73 °FPartly sunny.6 mph69%30.01 "Hg15 mi
7:00 PM75 °FScattered clouds.7 mph69%29.99 "Hg15 mi
6:00 PM77 °FScattered clouds.2 mph61%29.98 "Hg15 mi
5:00 PM75 °FBroken clouds.5 mph69%29.98 "Hg15 mi
4:00 PM75 °FBroken clouds.5 mph69%29.99 "Hg15 mi
3:00 PM75 °FBroken clouds.5 mph69%30.00 "Hg14 mi
2:00 PM75 °FPartly sunny.2 mph65%30.00 "Hg15 mi
1:00 PM73 °FBroken clouds.2 mph74%30.00 "Hg15 mi
12:00 PM72 °FPartly sunny.2 mph78%30.01 "Hg13 mi
11:00 AM73 °FScattered clouds.No wind74%30.01 "Hg12 mi
10:00 AM72 °FScattered clouds.No wind78%30.02 "Hg12 mi
9:54 AMN/ABroken clouds.No windN/AN/A11 mi
9:00 AM68 °FBroken clouds.3 mph83%30.01 "Hg10 mi
8:00 AM64 °FPartly sunny.5 mph94%30.01 "Hg8 mi
7:53 AMN/APartly sunny.5 mphN/AN/A8 mi
7:00 AM64 °FLow clouds.5 mph88%29.99 "Hg7 mi
6:00 AM64 °FLow clouds.6 mph94%29.97 "Hg7 mi
5:00 AM64 °FLow clouds.6 mph94%29.97 "Hg7 mi
4:00 AM64 °FLow clouds.5 mph94%29.98 "Hg8 mi
3:00 AM63 °FPassing clouds.3 mph100%29.98 "Hg10 mi
2:00 AM63 °FPassing clouds.3 mph94%29.98 "Hg15 mi
1:00 AM64 °FPassing clouds.5 mph94%29.98 "Hg15 mi
12:00 AM66 °FPassing clouds.5 mph88%29.98 "Hg15 mi
11:00 PM
Aug 21
66 °FClear.5 mph94%29.98 "Hg15 mi
10:00 PM68 °FPassing clouds.5 mph83%29.97 "Hg15 mi
Weather by CustomWeather, © 2014

See weather overviewHow to use our weather pages